Location: Dodge City Co - Operative Exchange Grain Elevator Number 8
(38.1218°N, 99.7124°W)
Time: 07:01:33
(UTC+00:00)

Cosmos 1328 Rocket - Pass Details

Date: 03 March 2021
Orbit: 602 x 626 km, 82.5° (Epoch: 13 April)

Event Time Altitude Azimuth Distance (km) Brightness Sun altitude
Rises 12:24:10 0° 190° (S) 2,843 6.9 -9.3°
Reaches altitude 10° 12:26:23 10° 192° (SSW) 1,942 6.0 -8.9°
Maximum altitude 12:30:40 75° 278° (W) 627 3.4 -8.0°
Drops below altitude 10° 12:34:59 10° 4° (N) 1,954 6.1 -7.2°
Sets 12:37:13 0° 6° (N) 2,862 7.0 -6.7°
